GFSFLT2_925_temp_222.txt.gz
Temp
22 22 22 22 22 22 22 21 21 21 21 20 20 20 20 20 20 19 19 19 19 19 19 20 19 20 20 19 19 19 19 19
22 21 21 22 22 21 21 21 20 20 20 20 20 20 20 20 20 20 19 19 19 19 19 19 19 20 20 19 19 19 19 19
21 21 21 21 21 21 20 20 20 20 20 20 19 19 19 19 20 20 19 19 18 18 19 19 19 19 19 19 19 19 19 19
21 21 21 21 20 20 20 20 19 19 19 19 19 19 20 19 19 19 19 19 18 18 18 18 18 19 19 19 18 18 18 19
20 21 21 20 20 20 19 20 20 20 19 20 19 19 19 19 19 19 19 19 19 18 18 19 19 19 19 18 18 18 18 18
21 21 21 20 20 20 20 20 20 20 20 20 20 20 19 19 19 19 19 19 19 18 18 18 18 18 19 19 18 18 18 18
20 21 21 20 20 20 20 20 21 21 20 20 20 20 20 19 19 19 19 19 19 19 18 18 19 18 19 19 19 18 18 18
21 21 21 21 20 21 21 21 21 21 21 21 20 20 20 19 19 19 19 19 19 19 19 19 19 19 19 19 19 19 18 18
22 22 21 21 21 21 21 21 21 21 21 21 20 20 20 19 19 19 19 19 19 19 19 19 18 19 19 19 19 19 18 18
21 21 21 20 21 21 21 21 21 21 22 21 21 21 20 20 19 19 19 19 19 19 19 19 18 19 19 19 20 19 19 18
20 20 21 21 21 21 20 20 20 20 21 21 21 21 20 20 20 20 20 19 19 19 19 19 18 19 19 19 19 19 19 18
21 21 21 21 20 20 20 20 20 19 19 19 20 20 20 20 20 19 19 19 19 19 19 19 19 20 20 20 19 19 18 18
21 20 20 20 20 20 20 20 19 19 19 19 19 19 19 19 19 18 18 18 19 18 18 19 19 19 19 18 19 19 18 17
19 19 20 20 21 21 21 21 19 19 19 18 18 18 18 18 18 18 18 18 18 18 17 17 17 18 18 16 15 17 18 17
19 19 19 20 20 19 19 19 19 18 18 18 18 18 18 18 17 17 17 17 17 17 17 16 16 16 16 17 13 14 14 17
18 18 19 19 18 18 18 18 17 17 17 17 17 17 18 18 17 17 17 17 17 17 16 16 15 14 15 15 15 14 13 13
18 18 17 18 18 18 18 17 17 17 17 17 17 17 17 17 17 17 16 16 16 16 15 15 14 14 14 13 14 14 14 13
18 18 17 17 18 18 18 17 17 17 17 17 16 16 16 15 15 15 14 14 14 14 14 13 13 13 13 13 12 13 13 13
18 18 17 17 17 17 17 16 16 16 15 15 15 15 15 15 14 14 13 13 13 13 13 12 12 12 11 11 12 12 12 12
17 17 17 17 17 16 16 16 16 15 15 15 15 14 14 13 13 13 13 13 12 12 11 11 11 11 10 10 10 10 10 10

GFSFLT2_925_temp_228.txt.gz
Temp
21 21 21 22 22 22 22 22 21 21 21 21 20 20 20 20 19 19 18 18 19 19 19 18 18 18 18 18 19 19 19 19
21 20 21 21 21 22 22 21 21 21 20 20 20 19 19 19 19 18 18 18 19 19 18 18 18 18 18 18 18 19 19 19
19 18 20 19 21 21 21 20 20 20 20 20 19 19 19 19 19 19 19 18 18 18 19 18 18 18 18 18 18 19 19 18
19 19 18 20 21 20 20 20 20 19 19 19 19 19 19 19 19 19 19 19 19 18 18 18 18 18 18 18 18 18 18 18
18 18 19 21 19 19 20 19 20 19 19 19 19 20 19 19 19 19 19 19 19 18 18 18 18 18 18 18 18 18 18 18
19 20 21 20 21 21 21 20 20 19 19 19 20 20 20 20 19 19 19 19 18 18 18 18 18 18 18 18 18 18 18 18
21 21 21 21 21 21 21 20 20 20 19 19 20 20 20 19 19 19 19 19 18 18 18 18 18 18 18 18 18 18 18 18
21 21 21 21 20 21 21 21 21 20 19 19 20 19 19 19 19 19 19 19 19 18 18 18 18 18 18 18 18 18 18 19
21 21 20 20 20 20 21 21 20 20 20 20 20 20 19 19 19 18 19 18 18 18 18 18 18 18 18 19 19 19 19 19
21 20 20 20 20 20 20 20 21 20 20 20 20 20 20 19 19 19 19 19 18 18 18 18 18 18 18 19 19 19 19 19
21 20 21 19 19 19 19 20 20 21 20 20 20 20 20 19 19 20 19 18 18 18 18 18 18 18 18 19 19 19 19 18
21 21 21 20 19 19 19 19 20 20 20 20 20 20 20 19 19 19 19 19 18 18 18 18 17 18 18 18 18 18 19 18
21 20 20 19 18 17 18 18 19 19 20 20 20 20 19 21 20 20 19 19 18 17 17 17 17 17 16 17 18 18 18 19
19 19 20 19 19 18 18 18 18 19 19 19 19 19 19 19 18 18 18 17 17 17 16 16 15 16 16 15 14 16 17 18
19 19 18 18 18 18 18 17 18 17 17 18 18 18 18 18 17 17 17 17 16 16 16 15 15 15 15 14 13 13 12 16
18 18 17 18 18 17 18 17 17 17 18 17 17 17 17 17 17 17 16 16 15 15 14 15 14 14 14 14 13 13 12 12
17 17 17 17 17 17 18 18 18 17 16 16 16 16 16 16 16 15 15 14 14 14 14 14 14 13 12 12 12 12 12 11
17 17 17 17 17 18 18 18 18 16 15 15 15 15 15 15 15 15 14 14 14 13 13 13 12 11 11 11 11 11 11 11
15 16 15 16 17 18 18 18 18 17 15 15 15 14 14 14 14 14 14 13 13 12 12 11 11 10 10 10 9 9 8 8
14 14 15 16 17 17 17 18 17 16 16 15 15 15 14 13 13 13 13 12 12 11 11 10 9 9 8 8 8 7 6 5

GFSFLT2_925_temp_234.txt.gz
Temp
20 20 22 22 23 22 22 22 22 21 21 21 20 20 20 20 20 20 19 20 19 19 19 19 19 19 19 19 19 20 20 22
21 21 20 20 21 22 22 22 22 21 21 20 20 20 20 20 20 20 19 19 19 19 19 19 19 19 19 19 19 20 21 22
22 21 21 20 20 20 21 21 21 20 20 20 20 19 19 19 19 20 19 19 19 18 18 18 18 18 19 19 19 22 21 22
22 22 21 21 21 19 19 19 19 19 19 18 20 21 20 20 19 19 19 18 18 18 18 18 19 20 19 19 21 20 21 21
21 22 21 21 22 21 21 21 21 20 20 19 21 20 20 20 20 18 18 17 18 18 17 19 20 20 20 20 20 20 21 21
21 21 21 21 21 20 21 22 21 21 21 20 21 20 20 21 21 21 20 20 21 20 21 20 19 19 19 19 19 20 21 21
22 21 20 20 20 21 21 21 19 19 20 19 20 21 20 21 21 21 21 21 20 20 21 20 20 19 19 19 19 20 20 21
21 21 20 20 21 20 20 18 18 18 18 18 18 20 20 20 20 20 21 21 21 20 21 21 21 20 20 19 20 20 20 20
21 19 19 19 20 19 19 18 18 17 18 17 18 19 20 20 21 21 21 21 20 19 20 20 21 21 20 20 20 20 20 20
23 21 18 17 18 20 19 19 18 17 18 18 18 19 19 19 20 20 21 20 20 21 20 20 21 21 20 20 20 20 20 20
23 22 20 19 19 20 20 19 19 20 20 20 19 19 19 19 20 20 20 20 20 20 20 20 20 20 21 21 21 20 20 20
24 22 21 20 20 19 20 20 20 21 20 20 19 19 19 19 20 20 20 21 20 20 20 20 20 20 21 22 21 21 20 20
24 22 21 20 20 20 21 21 21 20 20 20 19 19 19 19 20 20 19 21 21 20 20 20 19 19 20 21 22 21 20 20
24 23 22 20 20 21 22 22 21 20 20 19 19 19 19 19 19 20 20 20 20 18 18 19 18 18 19 18 21 22 21 21
25 24 23 22 22 21 21 21 21 20 20 20 19 18 18 18 19 19 19 18 18 18 17 17 17 15 15 16 18 22 21 21
25 25 24 23 21 22 22 22 21 21 21 20 19 19 18 18 18 17 17 17 17 17 16 16 15 15 15 15 15 17 19 20
25 25 24 23 21 22 22 23 23 21 20 17 17 17 17 17 17 17 17 17 16 15 15 16 16 17 16 16 15 15 15 16
24 25 24 23 22 21 22 21 23 19 17 17 17 16 17 17 16 15 15 15 15 15 15 15 16 16 16 15 15 15 17 17
23 24 24 23 21 21 21 21 22 19 17 16 15 15 14 15 15 15 14 14 14 13 13 13 13 14 13 13 13 13 12 12
22 23 23 22 20 21 21 21 19 19 18 16 15 15 15 14 14 13 12 12 12 11 11 11 11 11 10 10 11 10 10 10

GFSFLT2_925_temp_237.txt.gz
Temp
22 21 22 23 23 23 22 22 22 22 22 21 21 21 21 20 20 20 20 20 20 20 20 20 20 20 20 20 20 21 21 23
22 22 21 21 22 22 22 22 22 22 21 21 21 21 20 20 19 19 19 19 19 19 19 19 19 19 19 20 20 21 21 24
23 23 22 21 21 21 22 22 21 21 20 20 20 20 19 20 19 19 19 19 19 19 19 19 19 19 19 20 20 22 23 24
24 23 22 22 22 20 20 19 19 19 19 19 20 22 21 21 20 19 18 18 18 18 18 19 19 20 20 21 21 22 22 23
25 24 23 22 23 21 21 21 21 20 20 20 21 22 21 21 20 18 18 18 18 18 18 18 21 22 23 22 22 21 23 23
25 24 23 23 24 22 22 22 22 22 22 21 21 23 22 22 22 21 21 20 21 20 21 22 21 21 21 21 21 22 23 24
25 25 24 23 24 24 24 24 23 23 23 22 22 23 23 22 23 23 23 23 23 23 23 22 21 22 21 21 21 21 22 22
25 25 24 23 24 24 23 24 24 23 24 23 22 23 23 23 23 23 23 24 23 23 23 22 22 23 22 21 21 22 22 22
25 25 24 23 23 24 23 24 23 20 20 20 20 21 22 22 23 22 23 23 23 22 22 23 22 22 22 21 21 21 22 21
26 25 24 23 23 23 23 23 22 19 20 18 18 20 22 21 22 22 23 23 22 22 22 22 21 21 21 22 21 22 21 21
26 24 23 22 22 23 22 22 21 22 20 20 19 20 21 22 22 22 22 22 23 22 22 21 21 22 22 22 22 21 22 22
27 24 23 21 22 22 23 22 21 22 21 22 21 20 21 21 22 22 21 22 22 22 22 22 22 23 23 22 22 22 22 21
27 25 23 21 21 22 23 23 22 22 23 23 22 21 21 20 21 21 21 22 21 21 22 22 21 20 21 22 23 22 22 22
28 26 25 23 23 23 24 24 23 23 23 22 22 20 20 20 20 22 21 22 22 22 20 20 20 19 21 21 23 23 23 22
28 27 26 24 24 24 24 24 24 23 23 22 21 20 20 20 20 21 21 20 20 20 20 20 20 18 18 20 21 23 23 23
28 28 26 25 23 25 25 25 25 24 23 22 21 20 20 20 20 20 20 20 19 19 18 18 17 17 16 17 17 19 21 22
28 28 27 26 24 25 24 25 25 25 23 22 22 20 20 20 20 19 18 17 17 17 17 16 16 16 17 17 17 18 18 19
27 28 28 27 25 23 25 24 25 25 24 22 21 20 19 19 18 17 17 17 16 16 16 16 17 18 19 18 18 19 19 19
26 27 28 27 25 23 24 24 25 25 23 19 17 17 17 17 17 17 16 16 16 16 16 16 16 17 17 16 16 16 15 15
25 27 27 27 26 24 23 23 24 25 21 17 16 16 16 16 16 15 15 15 16 15 15 15 14 14 14 14 14 13 13 13

GFSFLT2_925_temp_240.txt.gz
Temp
24 22 22 23 23 23 22 22 22 22 21 22 21 21 21 20 20 20 20 20 20 19 20 20 20 20 20 21 21 22 22 23
23 21 22 22 22 22 22 22 22 22 22 22 21 21 21 20 19 19 20 20 20 19 19 20 20 20 20 20 21 22 23 23
21 20 21 21 21 21 21 22 21 21 21 21 21 20 20 20 19 20 20 20 19 19 19 20 20 20 21 21 22 22 22 22
22 21 21 20 20 21 20 20 21 21 20 20 20 20 20 20 19 19 20 19 19 19 19 20 20 20 21 22 22 22 23 22
23 23 21 21 22 21 20 20 20 20 19 20 20 21 21 20 20 19 19 19 19 19 20 20 21 21 20 22 22 22 23 23
24 23 22 22 22 21 20 20 20 20 20 20 21 22 21 21 21 20 19 19 19 20 20 21 21 21 21 21 21 22 23 23
25 24 22 22 23 22 21 21 21 21 20 20 21 21 22 22 22 21 20 20 21 21 21 21 22 21 21 21 21 21 21 23
26 24 23 22 23 22 22 22 22 22 22 21 21 22 23 22 22 22 22 22 23 22 22 22 23 22 22 21 22 22 22 22
26 25 23 23 23 24 23 23 23 23 23 22 22 22 23 22 22 23 23 23 24 23 23 22 22 22 22 22 21 21 22 22
26 25 24 23 23 24 24 24 24 23 23 22 21 22 22 22 22 23 23 23 23 23 23 23 22 22 22 21 21 21 21 21
25 25 25 23 23 23 23 23 23 22 22 21 21 21 22 22 22 22 22 23 22 22 23 22 22 21 21 21 21 21 21 21
26 25 25 23 23 23 23 23 23 21 21 20 20 20 21 21 22 22 22 22 22 22 22 22 22 22 22 22 22 22 22 22
26 25 24 23 22 22 23 23 21 22 20 20 20 20 20 21 21 22 22 22 22 22 22 21 22 21 21 22 22 22 22 22
26 25 24 23 22 22 23 22 22 21 22 21 21 20 20 21 21 21 22 21 22 22 21 21 21 20 20 20 18 21 22 21
26 25 23 23 22 22 22 23 23 22 22 22 22 21 21 21 20 21 21 21 21 21 21 21 21 19 19 19 18 18 20 21
28 26 24 23 22 22 22 23 23 23 23 23 22 21 20 20 20 21 21 21 21 20 21 20 20 18 18 18 18 18 18 17
29 27 26 24 23 23 23 24 24 24 23 23 22 21 20 20 20 20 21 20 20 19 19 19 19 17 17 17 17 18 18 17
29 28 27 25 23 24 24 24 24 24 23 22 21 20 20 20 20 20 20 19 18 18 18 18 18 18 18 18 18 17 17 17
27 28 28 26 24 23 24 24 24 25 23 22 21 20 20 20 20 19 19 18 18 17 17 17 17 17 18 18 17 17 16 15
26 27 28 27 25 23 23 24 24 24 23 22 21 19 18 18 19 19 19 18 17 17 17 17 17 17 16 16 15 14 14 13

GFSFLT2_925_temp_246.txt.gz
Temp
22 22 22 23 23 23 23 22 22 22 21 21 21 21 21 20 20 20 20 20 20 20 20 20 21 21 22 22 22 21 21 20
21 22 22 22 22 23 22 22 22 22 21 21 21 20 20 20 20 20 20 20 20 20 20 21 21 21 21 21 22 21 21 21
20 19 20 21 21 22 22 22 22 21 21 21 20 20 20 20 20 20 20 21 20 20 21 21 21 21 21 21 22 21 21 21
20 19 19 19 20 21 21 21 21 20 20 20 20 20 20 20 20 20 20 20 20 21 21 21 21 21 21 21 21 21 21 21
19 19 19 19 19 20 20 20 20 20 20 20 20 20 20 20 20 20 20 20 21 21 21 21 21 21 21 21 21 21 21 21
19 19 19 19 19 19 20 20 20 20 20 20 20 20 20 20 20 20 21 21 21 21 21 21 21 21 21 21 21 20 21 20
21 20 20 20 20 19 20 20 20 20 20 20 20 20 20 20 20 20 20 21 21 21 21 21 21 21 21 20 21 21 21 21
21 21 21 21 20 20 20 20 20 20 20 21 21 21 20 20 20 20 20 20 22 22 21 21 21 21 20 21 21 21 21 21
22 22 21 21 20 20 20 20 21 20 21 21 21 21 20 20 20 21 21 21 22 21 21 21 21 21 20 21 21 21 21 22
22 22 22 21 21 21 20 20 20 20 21 21 21 21 20 20 20 21 21 22 22 21 21 21 20 21 21 21 21 21 21 21
21 21 22 21 21 21 20 20 20 20 21 21 21 21 21 20 21 21 21 22 21 21 21 21 21 21 22 22 21 21 21 21
22 21 21 21 20 20 20 20 20 20 20 21 21 21 21 21 21 21 22 21 21 21 21 21 22 22 21 21 21 21 21 22
22 21 20 20 20 20 19 19 20 19 20 21 21 21 21 21 21 21 22 22 22 22 22 22 22 22 21 20 20 21 21 21
23 22 20 21 21 20 20 20 19 19 19 20 21 21 22 21 21 21 22 22 22 22 22 22 21 21 20 18 16 18 20 20
23 22 21 21 21 21 21 20 20 19 19 20 21 22 22 22 21 21 21 22 22 22 22 21 20 20 20 20 15 16 17 17
24 23 21 21 21 21 21 21 20 20 19 19 20 21 21 21 21 21 21 21 21 22 21 21 21 20 19 20 20 19 15 15
24 23 22 22 21 21 21 21 21 21 21 20 19 20 21 21 21 21 21 21 21 21 21 21 20 20 20 17 18 18 18 15
24 23 23 22 21 21 21 22 21 21 20 20 19 19 21 21 21 20 20 20 21 21 21 21 20 20 20 20 19 17 16 15
24 23 23 22 21 21 21 21 21 21 20 20 18 18 18 20 20 20 19 20 20 21 21 21 20 20 20 19 19 19 19 17
24 23 23 22 21 21 21 21 21 21 20 20 19 19 18 18 20 19 20 20 20 20 20 20 20 20 19 18 18 18 18 18